Location: Sternwarte Stuttgart
(48.7670°N, 9.1830°E)
Time: 04:41:49
(UTC+01:00)

RESURS DK-1 - Pass Details

Date: 24 January 2019
Orbit: 557 x 561 km, 69.9° (Epoch: 16 February)

Event Time Altitude Azimuth Distance (km) Brightness Sun altitude
Exits shadow 05:50:11 72° 249° (WSW) 593 2.2 -21.7°
Maximum altitude 05:50:14 72° 243° (WSW) 593 2.2 -21.7°
Drops below altitude 10° 05:54:19 10° 159° (SSE) 1,841 5.3 -21.0°
Sets 05:56:31 0° 158° (SSE) 2,731 6.3 -20.7°
